Weather in Sozopol

Bulgaria     42°25′02″N   27°41′46″E
temp.,
°C
wind,
m/s
gust,
m/s
humid.,
%
clouds,
%
prec.,
mm/h
press.,
hPa
HPBL,
m
7 march, sun
sun723:00+6ne676697 0.1 10311127
02:00+5nne776489 0.1 10301090
05:00+5nne776576 0.0 1030870
08:00+5nne665843 0.0 10301001
11:00+4ne44480 0.0 10291005
14:00+4e32450 0.0 1027659
17:00+5se44490 0.0 1025461
20:00+5sse67590 0.0 1024516
8 march, mon
mon823:00+5s78650 0.0 1023381
02:00+4sw45630 0.0 1021325
05:00+3wsw34660 0.0 1019287
08:00+3wsw45690 0.0 1019312
11:00+6w46650 0.0 1018619
14:00+8sw22703 0.0 101780
17:00+9s44680 0.0 101577
20:00+8ssw45710 0.0 101656
9 march, tue
tue923:00+8w56740 0.0 1017147
02:00+7w68710 0.0 1018250
05:00+6wnw56618 0.0 1018289
08:00+5nnw225819 0.0 1020246
11:00+5nne456735 0.0 1020374
14:00+7ne788320 0.0 1020563
17:00+7ne888530 0.0 1019590
20:00+8ene678461 0.0 1020503
10 march, wed
wed1023:00+8e6783100 0.0 1020557
02:00+7e7881100 0.0 1018579
05:00+8e798699 0.0 1016551
08:00+7e8984100 0.3 1016820
11:00+7e9985100 0.8 1015889
14:00+6e10988100 3.4 1015617
17:00+6ene8789100 1.4 1015549
20:00+5ne7891100 2.3 1016629
11 march, thu
thu1123:00+5n7891100 1.4 1018588
02:00+5nne121495100 2.2 1019764
05:00+4n111289100 0.9 1020821
08:00+4n101177100 1.1 1023941
11:00+4nne786922 0.0 10251077
14:00+5ne665912 0.0 1026815
17:00+5e446035 0.0 1026597
20:00+5se335920 0.0 1028553